Regional Weather Roundup
Issued by NWS

Home | Current Version | Previous Version | Graphics & Text | Print | Product List | Glossary On
Versions: 1 2 3 4 5 6 7 8 9 10 11 12 13 14 15 16 17 18 19 20 21 22 23 24 25 26 27
000
ASUS45 KBOI 172210
RWRID

IDAHO REGIONAL WEATHER ROUNDUP
NATIONAL WEATHER SERVICE BOISE ID
400 PM MDT THU AUG 17 2017

NOTE: "FAIR" INDICATES FEW OR NO CLOUDS BELOW 12000 FEET
WITH NO SIGNIFICANT WEATHER AND/OR OBSTRUCTIONS TO VISIBILITY

IDZ012-014-172300-
SOUTHWEST IDAHO


CITY           SKY/WX    TMP DP  RH WIND       PRES   REMARKS
BOISE          SUNNY     86  42  21 NW12G23   30.07F
CALDWELL       SUNNY     87  46  24 W12       30.05F
MOUNTAIN HOME  SUNNY     89  43  20 NW7       30.06F
$$

IDZ016-017-172300-
SOUTHCENTRAL IDAHO


CITY           SKY/WX    TMP DP  RH WIND       PRES   REMARKS
BURLEY         SUNNY     81  41  24 W15G25    30.11F
JEROME         SUNNY     83  43  24 W16G23    30.12F
TWIN FALLS     SUNNY     85  41  21 W15G22    30.12F
$$

IDZ019>023-172300-
SOUTHEAST IDAHO


CITY           SKY/WX    TMP DP  RH WIND       PRES   REMARKS
IDAHO FALLS    SUNNY     84  37  18 SW17G24   30.13F
POCATELLO      SUNNY     86  35  16 W15G23    30.14F
REXBURG        SUNNY     81  37  20 SW14G20   30.14F
$$

IDZ006-010-011-018-031-032-172300-
CENTRAL IDAHO MOUNTAINS


CITY           SKY/WX    TMP DP  RH WIND       PRES   REMARKS
MCCALL         SUNNY     80  31  16 MISG      30.16F
HAILEY         MOSUNNY   81  43  26 SW9       30.15F
STANLEY          N/A     79  30  16 NW8       30.23F
SALMON         SUNNY     83  40  21 NW6       30.07F
CHALLIS        SUNNY     82  30  15 VRB5      30.11F
$$

IDZ002-004-006-007-026-172300-
NORTHERN IDAHO


CITY           SKY/WX    TMP DP  RH WIND       PRES   REMARKS
LEWISTON       SUNNY     88  47  24 W8        30.03F
LOWELL         NOT AVBL
COEUR D`ALENE  SUNNY     83  47  28 VRB7G17   30.07F
MULLAN PASS    SUNNY     69  37  30 VRB5      30.24S
$$




USA.gov is the U.S. government's official web portal to all federal, state and local government web resources and services.